Time,TemperatureF,DewpointF,PressureIn,WindDirection,WindDirectionDegrees,WindSpeedMPH,WindSpeedGustMPH,Humidity,HourlyPrecipIn,Conditions,Clouds,dailyrainin,SoftwareType,DateUTC
2013-04-25 00:01:00,53.1,45.7,29.84,ESE,113,0.0,9.0,83,0.00,,,0.00,meteohub,2013-04-25 04:01:00,
2013-04-25 00:02:00,53.1,45.7,29.84,ESE,113,0.0,9.0,83,0.00,,,0.00,meteohub,2013-04-25 04:02:00,
2013-04-25 00:07:00,52.9,45.7,29.85,ESE,106,1.0,4.0,83,0.00,,,0.00,meteohub,2013-04-25 04:07:00,
2013-04-25 00:12:00,52.9,45.7,29.85,NE,34,0.0,6.0,84,0.00,,,0.00,meteohub,2013-04-25 04:12:00,
2013-04-25 00:17:00,52.7,45.7,29.85,ENE,69,1.0,6.0,84,0.00,,,0.00,meteohub,2013-04-25 04:17:00,
2013-04-25 00:22:00,52.7,45.5,29.84,SE,125,0.0,6.0,84,0.00,,,0.00,meteohub,2013-04-25 04:22:00,
2013-04-25 00:27:00,52.5,45.5,29.84,East,82,0.0,5.0,85,0.00,,,0.00,meteohub,2013-04-25 04:27:00,
2013-04-25 00:32:00,52.5,45.5,29.84,NE,46,2.0,8.0,85,0.00,,,0.00,meteohub,2013-04-25 04:32:00,
2013-04-25 00:37:00,52.5,45.5,29.84,NE,47,0.0,8.0,85,0.00,,,0.00,meteohub,2013-04-25 04:37:00,
2013-04-25 00:42:00,52.5,45.5,29.84,ENE,71,1.0,6.0,85,0.00,,,0.00,meteohub,2013-04-25 04:42:00,
2013-04-25 00:47:00,52.5,45.3,29.83,East,92,1.0,6.0,86,0.00,,,0.00,meteohub,2013-04-25 04:47:00,
2013-04-25 00:52:00,52.5,45.3,29.83,ESE,107,1.0,9.0,86,0.00,,,0.00,meteohub,2013-04-25 04:52:00,
2013-04-25 00:57:00,52.7,45.3,29.83,ESE,110,1.0,9.0,87,0.00,,,0.00,meteohub,2013-04-25 04:57:00,
2013-04-25 01:02:00,52.9,45.3,29.83,NNE,32,1.0,9.0,87,0.00,,,0.00,meteohub,2013-04-25 05:02:00,
2013-04-25 01:07:00,52.9,45.3,29.82,NNE,33,2.0,6.0,87,0.00,,,0.00,meteohub,2013-04-25 05:07:00,
2013-04-25 01:12:00,53.1,45.1,29.83,ESE,109,0.0,6.0,87,0.00,,,0.00,meteohub,2013-04-25 05:12:00,
2013-04-25 01:17:00,53.1,45.1,29.83,NW,309,1.0,6.0,87,0.00,,,0.00,meteohub,2013-04-25 05:17:00,
2013-04-25 01:22:00,53.2,45.1,29.82,East,79,2.0,5.0,88,0.00,,,0.00,meteohub,2013-04-25 05:22:00,
2013-04-25 01:27:00,53.2,45.1,29.83,NNE,22,2.0,10.0,88,0.00,,,0.00,meteohub,2013-04-25 05:27:00,
2013-04-25 01:32:00,53.4,45.0,29.83,SSE,153,0.0,10.0,88,0.00,,,0.00,meteohub,2013-04-25 05:32:00,
2013-04-25 01:37:00,53.6,45.0,29.83,NNE,28,4.0,10.0,88,0.00,,,0.00,meteohub,2013-04-25 05:37:00,
2013-04-25 01:42:00,53.8,45.0,29.83,East,96,1.0,7.0,88,0.00,,,0.00,meteohub,2013-04-25 05:42:00,
2013-04-25 01:47:00,53.8,45.0,29.83,NNW,341,4.0,7.0,89,0.00,,,0.00,meteohub,2013-04-25 05:47:00,
2013-04-25 01:52:00,54.0,45.0,29.83,NE,51,1.0,9.0,89,0.00,,,0.00,meteohub,2013-04-25 05:52:00,
2013-04-25 01:57:00,54.0,45.0,29.83,NW,326,6.0,9.0,89,0.00,,,0.00,meteohub,2013-04-25 05:57:00,
2013-04-25 02:02:00,54.1,45.0,29.83,North,350,2.0,9.0,89,0.00,,,0.00,meteohub,2013-04-25 06:02:00,
2013-04-25 02:07:00,54.1,45.0,29.83,North,355,4.0,7.0,89,0.00,,,0.00,meteohub,2013-04-25 06:07:00,
2013-04-25 02:12:00,54.1,45.0,29.83,ESE,122,0.0,7.0,89,0.00,,,0.00,meteohub,2013-04-25 06:12:00,
2013-04-25 02:17:00,54.1,45.0,29.83,North,355,3.0,7.0,89,0.00,,,0.00,meteohub,2013-04-25 06:17:00,
2013-04-25 02:22:00,54.3,45.0,29.83,NE,44,0.0,7.0,89,0.00,,,0.00,meteohub,2013-04-25 06:22:00,
2013-04-25 02:27:00,54.3,44.8,29.83,North,9,0.0,6.0,89,0.00,,,0.00,meteohub,2013-04-25 06:27:00,
2013-04-25 02:32:00,54.3,44.8,29.83,ENE,68,0.0,5.0,89,0.00,,,0.00,meteohub,2013-04-25 06:32:00,
2013-04-25 02:37:00,54.3,44.8,29.83,ENE,72,1.0,6.0,89,0.00,,,0.00,meteohub,2013-04-25 06:37:00,
2013-04-25 02:42:00,54.5,44.8,29.83,NNW,338,0.0,6.0,89,0.00,,,0.00,meteohub,2013-04-25 06:42:00,
2013-04-25 02:47:00,54.5,44.8,29.83,East,87,0.0,6.0,89,0.00,,,0.00,meteohub,2013-04-25 06:47:00,
2013-04-25 02:52:00,54.5,44.8,29.83,NW,319,0.0,8.0,89,0.00,,,0.00,meteohub,2013-04-25 06:52:00,
2013-04-25 02:57:00,54.7,44.6,29.84,North,355,2.0,8.0,89,0.00,,,0.00,meteohub,2013-04-25 06:57:00,
2013-04-25 03:02:00,54.7,44.6,29.85,NNW,329,3.0,8.0,89,0.00,,,0.00,meteohub,2013-04-25 07:02:00,
2013-04-25 03:07:00,54.7,44.6,29.85,North,0,2.0,8.0,89,0.00,,,0.00,meteohub,2013-04-25 07:07:00,
2013-04-25 03:12:00,54.9,44.6,29.86,WNW,299,6.0,7.0,89,0.00,,,0.00,meteohub,2013-04-25 07:12:00,
2013-04-25 03:17:00,54.9,44.6,29.86,NNW,334,0.0,9.0,89,0.00,,,0.00,meteohub,2013-04-25 07:17:00,
2013-04-25 03:22:00,54.9,44.6,29.86,North,349,0.0,9.0,89,0.00,,,0.00,meteohub,2013-04-25 07:22:00,
2013-04-25 03:27:00,54.9,44.4,29.86,WNW,300,0.0,9.0,89,0.00,,,0.00,meteohub,2013-04-25 07:27:00,
2013-04-25 03:32:00,54.7,44.4,29.86,WNW,299,0.0,6.0,90,0.00,,,0.00,meteohub,2013-04-25 07:32:00,
2013-04-25 03:37:00,54.7,44.4,29.87,East,96,0.0,6.0,90,0.00,,,0.00,meteohub,2013-04-25 07:37:00,
2013-04-25 03:42:00,54.5,44.4,29.86,NW,317,0.0,5.0,91,0.00,,,0.00,meteohub,2013-04-25 07:42:00,
2013-04-25 03:47:00,54.5,44.4,29.87,NW,317,0.0,5.0,91,0.00,,,0.00,meteohub,2013-04-25 07:47:00,
2013-04-25 03:52:00,54.3,44.4,29.86,NNW,332,0.0,3.0,91,0.01,,,0.01,meteohub,2013-04-25 07:52:00,
2013-04-25 03:57:00,54.1,44.2,29.86,NNW,332,1.0,2.0,92,0.01,,,0.01,meteohub,2013-04-25 07:57:00,
2013-04-25 04:02:00,54.1,44.2,29.86,NNW,331,0.0,2.0,92,0.01,,,0.01,meteohub,2013-04-25 08:02:00,
2013-04-25 04:07:00,54.0,44.2,29.86,NNW,332,0.0,2.0,92,0.01,,,0.01,meteohub,2013-04-25 08:07:00,
2013-04-25 04:13:00,54.0,44.2,29.87,NW,309,0.0,5.0,93,0.01,,,0.01,meteohub,2013-04-25 08:13:00,
2013-04-25 04:18:00,54.0,44.2,29.88,NW,309,0.0,5.0,93,0.01,,,0.01,meteohub,2013-04-25 08:18:00,
2013-04-25 04:23:00,54.0,44.2,29.88,NW,309,0.0,5.0,93,0.02,,,0.02,meteohub,2013-04-25 08:23:00,
2013-04-25 04:28:00,54.0,44.1,29.88,NW,309,0.0,1.0,93,0.02,,,0.02,meteohub,2013-04-25 08:28:00,
2013-04-25 04:33:00,54.0,44.1,29.88,NW,313,0.0,1.0,93,0.02,,,0.02,meteohub,2013-04-25 08:33:00,
2013-04-25 04:38:00,54.0,44.1,29.88,WNW,294,5.0,5.0,93,0.02,,,0.02,meteohub,2013-04-25 08:38:00,
2013-04-25 04:43:00,54.0,44.1,29.89,WNW,295,6.0,6.0,93,0.02,,,0.02,meteohub,2013-04-25 08:43:00,
2013-04-25 04:48:00,54.0,44.1,29.91,WNW,293,7.0,9.0,93,0.01,,,0.02,meteohub,2013-04-25 08:48:00,
2013-04-25 04:53:00,53.2,44.1,29.91,NNW,340,8.0,9.0,91,0.01,,,0.02,meteohub,2013-04-25 08:53:00,
2013-04-25 04:58:00,52.5,44.1,29.92,WNW,303,4.0,10.0,88,0.01,,,0.02,meteohub,2013-04-25 08:58:00,
2013-04-25 05:03:00,52.2,43.9,29.92,NW,309,1.0,10.0,86,0.01,,,0.02,meteohub,2013-04-25 09:03:00,
2013-04-25 05:08:00,52.0,43.9,29.92,NNW,338,2.0,10.0,86,0.01,,,0.02,meteohub,2013-04-25 09:08:00,
2013-04-25 05:13:00,51.4,43.9,29.93,North,355,1.0,8.0,85,0.01,,,0.02,meteohub,2013-04-25 09:13:00,
2013-04-25 05:18:00,50.9,43.9,29.95,North,5,12.0,12.0,80,0.01,,,0.02,meteohub,2013-04-25 09:18:00,
2013-04-25 05:23:00,50.4,43.9,29.96,North,0,7.0,15.0,78,0.00,,,0.02,meteohub,2013-04-25 09:23:00,
2013-04-25 05:28:00,50.2,43.9,29.96,NNW,338,4.0,15.0,76,0.00,,,0.02,meteohub,2013-04-25 09:28:00,
2013-04-25 05:33:00,49.8,43.7,29.96,NNW,344,8.0,15.0,75,0.00,,,0.02,meteohub,2013-04-25 09:33:00,
2013-04-25 05:38:00,49.6,43.7,29.97,NNW,343,7.0,11.0,73,0.00,,,0.02,meteohub,2013-04-25 09:38:00,
2013-04-25 05:43:00,49.3,43.7,29.97,NW,312,4.0,11.0,74,0.00,,,0.02,meteohub,2013-04-25 09:43:00,
2013-04-25 05:48:00,49.3,43.7,29.97,WNW,292,4.0,15.0,74,0.00,,,0.02,meteohub,2013-04-25 09:48:00,
2013-04-25 05:53:00,48.9,43.7,29.97,NW,315,0.0,15.0,75,0.00,,,0.02,meteohub,2013-04-25 09:53:00,
2013-04-25 05:58:00,48.7,43.7,29.98,WNW,302,3.0,9.0,75,0.00,,,0.02,meteohub,2013-04-25 09:58:00,
2013-04-25 06:03:00,48.4,43.7,29.98,NW,314,9.0,9.0,75,0.00,,,0.02,meteohub,2013-04-25 10:03:00,
2013-04-25 06:08:00,48.2,43.7,29.99,NNW,342,2.0,6.0,78,0.00,,,0.02,meteohub,2013-04-25 10:08:00,
2013-04-25 06:13:00,48.0,43.7,29.99,SW,226,8.0,9.0,74,0.00,,,0.02,meteohub,2013-04-25 10:13:00,
2013-04-25 06:18:00,47.8,43.5,29.98,NNW,336,0.0,10.0,74,0.00,,,0.02,meteohub,2013-04-25 10:18:00,
2013-04-25 06:23:00,47.7,43.5,30.00,NNW,333,2.0,10.0,74,0.00,,,0.02,meteohub,2013-04-25 10:23:00,
2013-04-25 06:28:00,47.5,43.5,30.00,NNW,338,2.0,10.0,73,0.00,,,0.02,meteohub,2013-04-25 10:28:00,
2013-04-25 06:33:00,47.5,43.5,30.01,West,267,1.0,7.0,73,0.00,,,0.02,meteohub,2013-04-25 10:33:00,
2013-04-25 06:38:00,47.5,43.5,30.01,North,0,0.0,7.0,73,0.00,,,0.02,meteohub,2013-04-25 10:38:00,
2013-04-25 06:43:00,47.5,43.3,30.01,NNW,337,4.0,9.0,72,0.00,,,0.02,meteohub,2013-04-25 10:43:00,
2013-04-25 06:48:00,47.7,43.3,30.02,NW,314,2.0,9.0,72,0.00,,,0.02,meteohub,2013-04-25 10:48:00,
2013-04-25 06:53:00,47.7,43.3,30.01,NW,323,5.0,9.0,72,0.00,,,0.02,meteohub,2013-04-25 10:53:00,
2013-04-25 06:58:00,47.7,43.3,30.02,North,355,7.0,7.0,72,0.00,,,0.02,meteohub,2013-04-25 10:58:00,
2013-04-25 07:03:00,47.7,43.3,30.03,NNW,338,7.0,8.0,72,0.00,,,0.02,meteohub,2013-04-25 11:03:00,
2013-04-25 07:08:00,47.7,43.2,30.03,NW,318,4.0,8.0,70,0.00,,,0.02,meteohub,2013-04-25 11:08:00,
2013-04-25 07:13:00,47.5,43.2,30.03,NNW,346,1.0,13.0,69,0.00,,,0.02,meteohub,2013-04-25 11:13:00,
2013-04-25 07:18:00,47.5,43.2,30.04,NW,324,2.0,13.0,71,0.00,,,0.02,meteohub,2013-04-25 11:18:00,
2013-04-25 07:23:00,47.5,43.2,30.04,NNW,331,2.0,8.0,70,0.00,,,0.02,meteohub,2013-04-25 11:23:00,
2013-04-25 07:28:00,47.1,43.2,30.04,NNW,340,6.0,7.0,67,0.00,,,0.02,meteohub,2013-04-25 11:28:00,
2013-04-25 07:33:00,47.1,43.2,30.03,NW,321,5.0,9.0,67,0.00,,,0.02,meteohub,2013-04-25 11:33:00,
2013-04-25 07:38:00,46.9,43.0,30.04,NNW,340,6.0,11.0,67,0.00,,,0.02,meteohub,2013-04-25 11:38:00,
2013-04-25 07:43:00,46.9,43.0,30.04,North,355,4.0,11.0,67,0.00,,,0.02,meteohub,2013-04-25 11:43:00,
2013-04-25 07:48:00,46.9,43.0,30.05,NW,310,1.0,10.0,67,0.00,,,0.02,meteohub,2013-04-25 11:48:00,
2013-04-25 07:53:00,46.9,43.0,30.06,West,275,6.0,10.0,67,0.00,,,0.02,meteohub,2013-04-25 11:53:00,
2013-04-25 07:58:00,46.9,42.3,30.05,North,350,5.0,10.0,66,0.00,,,0.02,meteohub,2013-04-25 11:58:00,
2013-04-25 08:03:00,46.9,42.1,30.06,NW,315,5.0,8.0,67,0.00,,,0.02,meteohub,2013-04-25 12:03:00,
2013-04-25 08:08:00,46.8,42.1,30.05,NNW,328,4.0,8.0,67,0.00,,,0.02,meteohub,2013-04-25 12:08:00,
2013-04-25 08:13:00,46.9,42.1,30.05,NNW,329,4.0,7.0,66,0.00,,,0.02,meteohub,2013-04-25 12:13:00,
2013-04-25 08:18:00,46.9,42.1,30.05,NNW,329,0.0,8.0,67,0.00,,,0.02,meteohub,2013-04-25 12:18:00,
2013-04-25 08:23:00,46.9,42.1,30.06,NW,322,5.0,8.0,67,0.00,,,0.02,meteohub,2013-04-25 12:23:00,
2013-04-25 08:28:00,47.3,41.9,30.06,NW,317,4.0,9.0,67,0.00,,,0.02,meteohub,2013-04-25 12:28:00,
2013-04-25 08:33:00,47.7,41.9,30.06,NW,317,5.0,9.0,66,0.00,,,0.02,meteohub,2013-04-25 12:33:00,
2013-04-25 08:38:00,48.0,41.9,30.06,NW,321,5.0,9.0,65,0.00,,,0.02,meteohub,2013-04-25 12:38:00,
2013-04-25 08:44:00,48.2,41.9,30.07,NW,311,5.0,6.0,64,0.00,,,0.02,meteohub,2013-04-25 12:44:00,
2013-04-25 08:49:00,48.0,41.9,30.06,WNW,299,5.0,10.0,65,0.00,,,0.02,meteohub,2013-04-25 12:49:00,
2013-04-25 08:54:00,48.7,41.9,30.06,NW,321,8.0,11.0,63,0.00,,,0.02,meteohub,2013-04-25 12:54:00,
2013-04-25 08:59:00,49.1,41.9,30.07,NW,319,0.0,11.0,64,0.00,,,0.02,meteohub,2013-04-25 12:59:00,
2013-04-25 09:04:00,49.6,41.9,30.06,North,355,5.0,11.0,62,0.00,,,0.02,meteohub,2013-04-25 13:04:00,
2013-04-25 09:09:00,49.8,41.9,30.06,NW,305,0.0,11.0,62,0.00,,,0.02,meteohub,2013-04-25 13:09:00,
2013-04-25 09:14:00,50.9,41.9,30.07,NW,304,5.0,11.0,64,0.00,,,0.02,meteohub,2013-04-25 13:14:00,
2013-04-25 09:19:00,51.4,41.9,30.07,South,180,0.0,10.0,61,0.00,,,0.02,meteohub,2013-04-25 13:19:00,
2013-04-25 09:24:00,51.6,41.9,30.06,NNW,338,4.0,8.0,59,0.00,,,0.02,meteohub,2013-04-25 13:24:00,
2013-04-25 09:29:00,52.0,41.9,30.07,NW,319,2.0,9.0,58,0.00,,,0.02,meteohub,2013-04-25 13:29:00,
2013-04-25 09:34:00,52.2,41.9,30.08,North,349,10.0,10.0,58,0.00,,,0.02,meteohub,2013-04-25 13:34:00,
2013-04-25 09:39:00,51.8,41.7,30.08,NW,318,4.0,7.0,57,0.00,,,0.02,meteohub,2013-04-25 13:39:00,
2013-04-25 09:44:00,52.0,41.7,30.08,NW,310,0.0,10.0,56,0.00,,,0.02,meteohub,2013-04-25 13:44:00,
2013-04-25 09:49:00,52.3,41.7,30.08,NNW,327,7.0,12.0,56,0.00,,,0.02,meteohub,2013-04-25 13:49:00,
2013-04-25 09:54:00,52.2,41.7,30.09,NW,315,5.0,12.0,56,0.00,,,0.02,meteohub,2013-04-25 13:54:00,
2013-04-25 09:59:00,52.3,41.7,30.09,WNW,283,1.0,10.0,56,0.00,,,0.02,meteohub,2013-04-25 13:59:00,
2013-04-25 10:04:00,52.9,41.7,30.09,NNW,327,5.0,10.0,55,0.00,,,0.02,meteohub,2013-04-25 14:04:00,
2013-04-25 10:09:00,53.1,41.7,30.09,NNW,329,2.0,10.0,57,0.00,,,0.02,meteohub,2013-04-25 14:09:00,
2013-04-25 10:14:00,53.4,41.7,30.09,NW,326,2.0,9.0,55,0.00,,,0.02,meteohub,2013-04-25 14:14:00,
2013-04-25 10:19:00,54.0,41.7,30.08,North,350,4.0,8.0,55,0.00,,,0.02,meteohub,2013-04-25 14:19:00,
2013-04-25 10:24:00,54.3,41.7,30.08,NNW,341,1.0,7.0,55,0.00,,,0.02,meteohub,2013-04-25 14:24:00,
2013-04-25 10:29:00,55.2,41.7,30.09,NNW,344,0.0,8.0,55,0.00,,,0.02,meteohub,2013-04-25 14:29:00,
2013-04-25 10:34:00,55.8,41.7,30.09,North,355,0.0,8.0,52,0.00,,,0.02,meteohub,2013-04-25 14:34:00,
2013-04-25 10:39:00,55.6,41.7,30.09,NNW,327,0.0,6.0,50,0.00,,,0.02,meteohub,2013-04-25 14:39:00,
2013-04-25 10:44:00,55.4,41.7,30.08,NNW,337,3.0,7.0,50,0.00,,,0.02,meteohub,2013-04-25 14:44:00,
2013-04-25 10:49:00,55.9,41.9,30.09,NNW,334,1.0,11.0,50,0.00,,,0.02,meteohub,2013-04-25 14:49:00,
2013-04-25 10:54:00,56.1,41.9,30.09,NW,311,4.0,11.0,49,0.00,,,0.02,meteohub,2013-04-25 14:54:00,
2013-04-25 10:59:00,56.7,41.9,30.09,NW,321,1.0,11.0,49,0.00,,,0.02,meteohub,2013-04-25 14:59:00,
2013-04-25 11:04:00,56.8,41.9,30.09,North,0,0.0,6.0,47,0.00,,,0.02,meteohub,2013-04-25 15:04:00,
2013-04-25 11:09:00,57.0,41.9,30.09,SE,133,0.0,6.0,48,0.00,,,0.02,meteohub,2013-04-25 15:09:00,
2013-04-25 11:14:00,57.2,42.1,30.10,NNW,329,5.0,8.0,49,0.00,,,0.02,meteohub,2013-04-25 15:14:00,
2013-04-25 11:19:00,56.8,42.1,30.10,WNW,300,7.0,8.0,48,0.00,,,0.02,meteohub,2013-04-25 15:19:00,
2013-04-25 11:24:00,56.8,42.1,30.10,NW,314,10.0,10.0,47,0.00,,,0.02,meteohub,2013-04-25 15:24:00,
2013-04-25 11:29:00,56.8,42.1,30.10,WNW,284,4.0,13.0,46,0.00,,,0.02,meteohub,2013-04-25 15:29:00,
2013-04-25 11:34:00,57.4,42.1,30.10,NNW,345,0.0,13.0,46,0.00,,,0.02,meteohub,2013-04-25 15:34:00,
2013-04-25 11:39:00,57.7,42.3,30.10,North,349,1.0,13.0,46,0.00,,,0.02,meteohub,2013-04-25 15:39:00,
2013-04-25 11:44:00,57.7,42.3,30.10,WNW,298,2.0,13.0,45,0.00,,,0.02,meteohub,2013-04-25 15:44:00,
2013-04-25 11:49:00,57.9,42.3,30.10,NW,309,0.0,13.0,52,0.00,,,0.02,meteohub,2013-04-25 15:49:00,
2013-04-25 11:54:00,58.3,42.3,30.10,North,355,2.0,13.0,46,0.00,,,0.02,meteohub,2013-04-25 15:54:00,
2013-04-25 11:59:00,57.9,42.3,30.10,NNW,344,7.0,8.0,47,0.00,,,0.02,meteohub,2013-04-25 15:59:00,
2013-04-25 12:04:00,57.9,42.3,30.10,NNW,336,5.0,11.0,47,0.00,,,0.02,meteohub,2013-04-25 16:04:00,
2013-04-25 12:09:00,58.1,42.3,30.10,NW,325,5.0,12.0,45,0.00,,,0.02,meteohub,2013-04-25 16:09:00,
2013-04-25 12:14:00,58.1,42.3,30.10,SE,130,0.0,12.0,45,0.00,,,0.02,meteohub,2013-04-25 16:14:00,
2013-04-25 12:19:00,58.5,42.3,30.11,North,355,11.0,11.0,44,0.00,,,0.02,meteohub,2013-04-25 16:19:00,
2013-04-25 12:24:00,58.5,42.3,30.10,North,350,0.0,13.0,48,0.00,,,0.02,meteohub,2013-04-25 16:24:00,
2013-04-25 12:29:00,59.0,42.3,30.10,WNW,300,2.0,13.0,44,0.00,,,0.02,meteohub,2013-04-25 16:29:00,
2013-04-25 12:34:00,59.4,42.3,30.11,WNW,290,5.0,13.0,42,0.00,,,0.02,meteohub,2013-04-25 16:34:00,
2013-04-25 12:39:00,59.0,42.3,30.11,NW,315,6.0,11.0,41,0.00,,,0.02,meteohub,2013-04-25 16:39:00,
2013-04-25 12:44:00,58.8,42.3,30.11,NNW,336,1.0,11.0,42,0.00,,,0.02,meteohub,2013-04-25 16:44:00,
2013-04-25 12:49:00,59.0,42.4,30.11,South,183,1.0,11.0,45,0.00,,,0.02,meteohub,2013-04-25 16:49:00,
2013-04-25 12:54:00,59.5,42.4,30.11,North,355,4.0,10.0,42,0.00,,,0.02,meteohub,2013-04-25 16:54:00,
2013-04-25 13:00:00,60.1,42.4,30.12,NW,319,2.0,8.0,42,0.00,,,0.02,meteohub,2013-04-25 17:00:00,
2013-04-25 13:05:00,60.4,42.4,30.11,NW,319,5.0,8.0,44,0.00,,,0.02,meteohub,2013-04-25 17:05:00,
2013-04-25 13:10:00,60.4,42.4,30.12,NW,315,4.0,8.0,41,0.00,,,0.02,meteohub,2013-04-25 17:10:00,
2013-04-25 13:15:00,60.6,42.4,30.11,West,280,2.0,8.0,40,0.00,,,0.02,meteohub,2013-04-25 17:15:00,
2013-04-25 13:20:00,61.0,42.6,30.12,NW,325,1.0,7.0,39,0.00,,,0.02,meteohub,2013-04-25 17:20:00,
2013-04-25 13:25:00,61.2,42.6,30.11,North,349,4.0,7.0,39,0.00,,,0.02,meteohub,2013-04-25 17:25:00,
2013-04-25 13:30:00,61.3,42.6,30.11,SSE,167,0.0,7.0,41,0.00,,,0.02,meteohub,2013-04-25 17:30:00,
2013-04-25 13:35:00,61.2,42.6,30.11,WNW,297,0.0,7.0,39,0.00,,,0.02,meteohub,2013-04-25 17:35:00,
2013-04-25 13:40:00,61.0,42.6,30.12,WNW,298,2.0,6.0,38,0.00,,,0.02,meteohub,2013-04-25 17:40:00,
2013-04-25 13:45:00,61.2,42.8,30.11,South,170,1.0,7.0,40,0.00,,,0.02,meteohub,2013-04-25 17:45:00,
2013-04-25 13:50:00,61.7,42.8,30.12,SE,136,0.0,9.0,38,0.00,,,0.02,meteohub,2013-04-25 17:50:00,
2013-04-25 13:55:00,61.9,42.8,30.11,NNW,342,2.0,9.0,38,0.00,,,0.02,meteohub,2013-04-25 17:55:00,
2013-04-25 14:00:00,62.4,42.8,30.11,WNW,296,1.0,6.0,41,0.00,,,0.02,meteohub,2013-04-25 18:00:00,
2013-04-25 14:05:00,62.6,43.0,30.11,NW,311,4.0,8.0,37,0.00,,,0.02,meteohub,2013-04-25 18:05:00,
2013-04-25 14:10:00,62.8,43.0,30.11,NW,315,0.0,8.0,38,0.00,,,0.02,meteohub,2013-04-25 18:10:00,
2013-04-25 14:15:00,62.8,43.0,30.11,NNW,342,8.0,8.0,36,0.00,,,0.02,meteohub,2013-04-25 18:15:00,
2013-04-25 14:20:00,62.4,43.2,30.11,SSW,201,0.0,9.0,37,0.00,,,0.02,meteohub,2013-04-25 18:20:00,
2013-04-25 14:25:00,62.2,43.2,30.11,NW,305,0.0,9.0,37,0.00,,,0.02,meteohub,2013-04-25 18:25:00,
2013-04-25 14:30:00,63.0,43.2,30.11,WNW,290,2.0,9.0,36,0.00,,,0.02,meteohub,2013-04-25 18:30:00,
2013-04-25 14:35:00,63.1,43.2,30.11,NNW,327,4.0,9.0,37,0.00,,,0.02,meteohub,2013-04-25 18:35:00,
2013-04-25 14:40:00,63.3,43.3,30.11,NNW,338,5.0,11.0,37,0.00,,,0.02,meteohub,2013-04-25 18:40:00,
2013-04-25 14:45:00,63.9,43.3,30.11,NW,317,2.0,11.0,36,0.00,,,0.02,meteohub,2013-04-25 18:45:00,
2013-04-25 14:50:00,63.7,43.3,30.11,North,350,4.0,12.0,34,0.00,,,0.02,meteohub,2013-04-25 18:50:00,
2013-04-25 14:55:00,63.7,43.3,30.11,NNW,337,5.0,12.0,36,0.00,,,0.02,meteohub,2013-04-25 18:55:00,
2013-04-25 15:00:00,63.7,43.3,30.10,NW,324,0.0,12.0,34,0.00,,,0.02,meteohub,2013-04-25 19:00:00,
2013-04-25 15:05:00,64.0,43.3,30.10,NNW,333,0.0,11.0,32,0.00,,,0.02,meteohub,2013-04-25 19:05:00,
2013-04-25 15:10:00,64.0,43.5,30.10,NNW,333,5.0,11.0,31,0.00,,,0.02,meteohub,2013-04-25 19:10:00,
2013-04-25 15:15:00,63.9,43.5,30.11,NW,326,5.0,8.0,32,0.00,,,0.02,meteohub,2013-04-25 19:15:00,
2013-04-25 15:20:00,63.1,43.5,30.10,NW,310,1.0,8.0,33,0.00,,,0.02,meteohub,2013-04-25 19:20:00,
2013-04-25 15:25:00,63.3,43.5,30.10,WNW,301,6.0,8.0,34,0.00,,,0.02,meteohub,2013-04-25 19:25:00,
2013-04-25 15:30:00,63.7,43.5,30.10,NW,318,5.0,8.0,33,0.00,,,0.02,meteohub,2013-04-25 19:30:00,
2013-04-25 15:35:00,63.9,43.7,30.10,NNW,334,7.0,8.0,33,0.00,,,0.02,meteohub,2013-04-25 19:35:00,
2013-04-25 15:40:00,63.7,43.7,30.11,NW,311,1.0,8.0,33,0.00,,,0.02,meteohub,2013-04-25 19:40:00,
2013-04-25 15:45:00,64.2,43.7,30.11,NNW,341,1.0,8.0,33,0.00,,,0.02,meteohub,2013-04-25 19:45:00,
2013-04-25 15:50:00,64.2,43.7,30.11,NNW,335,0.0,8.0,33,0.00,,,0.02,meteohub,2013-04-25 19:50:00,
2013-04-25 15:56:00,64.4,43.9,30.11,NNW,331,0.0,6.0,32,0.00,,,0.02,meteohub,2013-04-25 19:56:00,
2013-04-25 16:01:00,64.4,43.9,30.11,NNW,331,0.0,6.0,32,0.00,,,0.02,meteohub,2013-04-25 20:01:00,
2013-04-25 16:06:00,64.6,43.9,30.11,NNW,332,2.0,6.0,33,0.00,,,0.02,meteohub,2013-04-25 20:06:00,
2013-04-25 16:11:00,64.9,43.9,30.11,NW,312,1.0,6.0,31,0.00,,,0.02,meteohub,2013-04-25 20:11:00,
2013-04-25 16:16:00,64.8,43.9,30.11,NW,313,1.0,6.0,31,0.00,,,0.02,meteohub,2013-04-25 20:16:00,
2013-04-25 16:21:00,64.2,43.9,30.11,WNW,295,0.0,8.0,33,0.00,,,0.02,meteohub,2013-04-25 20:21:00,
2013-04-25 16:26:00,64.0,44.1,30.11,NW,322,1.0,8.0,32,0.00,,,0.02,meteohub,2013-04-25 20:26:00,
2013-04-25 16:31:00,64.0,44.1,30.11,NW,322,1.0,8.0,32,0.00,,,0.02,meteohub,2013-04-25 20:31:00,
2013-04-25 16:36:00,64.0,44.1,30.11,WNW,294,2.0,7.0,31,0.00,,,0.02,meteohub,2013-04-25 20:36:00,
2013-04-25 16:41:00,63.9,44.1,30.11,SE,142,0.0,7.0,32,0.00,,,0.02,meteohub,2013-04-25 20:41:00,
2013-04-25 16:46:00,63.9,44.1,30.12,North,11,0.0,7.0,33,0.00,,,0.02,meteohub,2013-04-25 20:46:00,
2013-04-25 16:51:00,64.2,44.1,30.12,NNW,344,4.0,5.0,31,0.00,,,0.02,meteohub,2013-04-25 20:51:00,
2013-04-25 16:56:00,64.2,44.1,30.12,NW,313,1.0,8.0,31,0.00,,,0.02,meteohub,2013-04-25 20:56:00,
2013-04-25 17:01:00,63.9,44.2,30.13,NW,323,0.0,8.0,32,0.00,,,0.02,meteohub,2013-04-25 21:01:00,
2013-04-25 17:06:00,63.7,44.2,30.13,WNW,292,4.0,8.0,32,0.00,,,0.02,meteohub,2013-04-25 21:06:00,
2013-04-25 17:11:00,63.3,44.2,30.13,NW,307,3.0,7.0,33,0.00,,,0.02,meteohub,2013-04-25 21:11:00,
2013-04-25 17:16:00,63.1,44.2,30.13,NNW,331,1.0,7.0,32,0.00,,,0.02,meteohub,2013-04-25 21:16:00,
2013-04-25 17:21:00,63.0,44.2,30.13,NW,315,0.0,7.0,31,0.00,,,0.02,meteohub,2013-04-25 21:21:00,
2013-04-25 17:26:00,63.0,44.2,30.13,NW,317,0.0,6.0,32,0.00,,,0.02,meteohub,2013-04-25 21:26:00,
2013-04-25 17:31:00,62.8,44.2,30.13,NNW,331,6.0,6.0,32,0.00,,,0.02,meteohub,2013-04-25 21:31:00,
2013-04-25 17:36:00,62.2,44.4,30.13,WNW,303,4.0,7.0,32,0.00,,,0.02,meteohub,2013-04-25 21:36:00,
2013-04-25 17:41:00,62.1,44.4,30.13,NW,317,0.0,7.0,31,0.00,,,0.02,meteohub,2013-04-25 21:41:00,
2013-04-25 17:46:00,62.1,44.4,30.13,NW,318,0.0,7.0,34,0.00,,,0.02,meteohub,2013-04-25 21:46:00,
2013-04-25 17:51:00,62.1,44.4,30.14,NW,318,1.0,5.0,34,0.00,,,0.02,meteohub,2013-04-25 21:51:00,
2013-04-25 17:56:00,62.1,44.4,30.13,NW,306,0.0,5.0,33,0.00,,,0.02,meteohub,2013-04-25 21:56:00,
2013-04-25 18:01:00,62.1,44.4,30.13,WNW,294,0.0,5.0,32,0.00,,,0.02,meteohub,2013-04-25 22:01:00,
2013-04-25 18:06:00,62.2,44.4,30.14,WNW,294,1.0,5.0,32,0.00,,,0.02,meteohub,2013-04-25 22:06:00,
2013-04-25 18:11:00,61.9,44.6,30.14,SE,144,1.0,4.0,32,0.00,,,0.02,meteohub,2013-04-25 22:11:00,
2013-04-25 18:16:00,61.9,44.6,30.14,SE,144,0.0,4.0,34,0.00,,,0.02,meteohub,2013-04-25 22:16:00,
2013-04-25 18:21:00,61.9,44.6,30.14,West,268,0.0,4.0,31,0.00,,,0.02,meteohub,2013-04-25 22:21:00,
2013-04-25 18:26:00,61.3,44.6,30.14,SSE,156,0.0,4.0,31,0.00,,,0.02,meteohub,2013-04-25 22:26:00,
2013-04-25 18:31:00,61.2,44.6,30.15,ESE,117,0.0,4.0,33,0.00,,,0.02,meteohub,2013-04-25 22:31:00,
2013-04-25 18:36:00,61.2,44.6,30.15,NNW,328,4.0,4.0,32,0.00,,,0.02,meteohub,2013-04-25 22:36:00,
2013-04-25 18:41:00,61.2,44.6,30.15,NW,306,0.0,6.0,30,0.00,,,0.02,meteohub,2013-04-25 22:41:00,
2013-04-25 18:46:00,61.2,44.6,30.15,NW,306,0.0,6.0,33,0.00,,,0.02,meteohub,2013-04-25 22:46:00,
2013-04-25 18:51:00,60.8,44.6,30.16,NW,306,0.0,6.0,33,0.00,,,0.02,meteohub,2013-04-25 22:51:00,
2013-04-25 18:56:00,60.4,44.6,30.16,NW,306,0.0,5.0,32,0.00,,,0.02,meteohub,2013-04-25 22:56:00,
2013-04-25 19:01:00,60.3,44.6,30.16,NW,306,0.0,1.0,34,0.00,,,0.02,meteohub,2013-04-25 23:01:00,
2013-04-25 19:06:00,59.9,44.6,30.16,NW,306,0.0,0.0,33,0.00,,,0.02,meteohub,2013-04-25 23:06:00,
2013-04-25 19:11:00,59.5,44.6,30.17,NW,306,0.0,0.0,34,0.00,,,0.02,meteohub,2013-04-25 23:11:00,
2013-04-25 19:16:00,59.0,44.6,30.17,NW,306,0.0,1.0,33,0.00,,,0.02,meteohub,2013-04-25 23:16:00,
2013-04-25 19:21:00,59.0,44.6,30.17,NW,306,0.0,2.0,33,0.00,,,0.02,meteohub,2013-04-25 23:21:00,
2013-04-25 19:26:00,58.5,44.6,30.17,NW,306,0.0,2.0,33,0.00,,,0.02,meteohub,2013-04-25 23:26:00,
2013-04-25 19:32:00,58.1,44.6,30.18,NW,306,0.0,2.0,36,0.00,,,0.02,meteohub,2013-04-25 23:32:00,
2013-04-25 19:37:00,57.7,44.6,30.18,NW,306,0.0,1.0,36,0.00,,,0.02,meteohub,2013-04-25 23:37:00,
2013-04-25 19:42:00,57.4,44.6,30.18,NW,306,0.0,1.0,36,0.00,,,0.02,meteohub,2013-04-25 23:42:00,
2013-04-25 19:47:00,56.8,44.4,30.18,NW,306,0.0,0.0,37,0.00,,,0.02,meteohub,2013-04-25 23:47:00,
2013-04-25 19:52:00,56.5,44.4,30.17,NW,306,0.0,0.0,36,0.00,,,0.02,meteohub,2013-04-25 23:52:00,
2013-04-25 19:57:00,55.9,44.4,30.18,NW,306,0.0,0.0,39,0.00,,,0.02,meteohub,2013-04-25 23:57:00,
2013-04-25 20:02:00,55.4,44.4,30.19,NW,306,0.0,0.0,39,0.00,,,0.02,meteohub,2013-04-26 00:02:00,
2013-04-25 20:07:00,54.9,44.4,30.19,NW,306,0.0,0.0,42,0.00,,,0.00,meteohub,2013-04-26 00:07:00,
2013-04-25 20:12:00,54.1,44.4,30.19,NW,306,0.0,0.0,45,0.00,,,0.00,meteohub,2013-04-26 00:12:00,
2013-04-25 20:17:00,53.1,44.2,30.19,NW,306,0.0,0.0,47,0.00,,,0.00,meteohub,2013-04-26 00:17:00,
2013-04-25 20:22:00,52.2,44.2,30.19,NW,306,0.0,0.0,46,0.00,,,0.00,meteohub,2013-04-26 00:22:00,
2013-04-25 20:27:00,51.4,44.2,30.20,NW,306,0.0,0.0,47,0.00,,,0.00,meteohub,2013-04-26 00:27:00,
2013-04-25 20:32:00,50.7,44.2,30.21,NW,306,0.0,0.0,48,0.00,,,0.00,meteohub,2013-04-26 00:32:00,
2013-04-25 20:37:00,50.2,44.2,30.21,NW,306,0.0,0.0,48,0.00,,,0.00,meteohub,2013-04-26 00:37:00,
2013-04-25 20:42:00,49.8,44.1,30.21,NW,306,0.0,0.0,50,0.00,,,0.00,meteohub,2013-04-26 00:42:00,
2013-04-25 20:47:00,49.5,44.1,30.21,NW,306,0.0,0.0,49,0.00,,,0.00,meteohub,2013-04-26 00:47:00,
2013-04-25 20:52:00,49.3,44.1,30.21,NW,306,0.0,0.0,49,0.00,,,0.00,meteohub,2013-04-26 00:52:00,
2013-04-25 20:57:00,48.7,44.1,30.22,NW,306,0.0,0.0,50,0.00,,,0.00,meteohub,2013-04-26 00:57:00,
2013-04-25 21:02:00,48.6,44.1,30.22,NW,306,0.0,0.0,50,0.00,,,0.00,meteohub,2013-04-26 01:02:00,
2013-04-25 21:07:00,48.2,43.9,30.22,NW,306,0.0,0.0,53,0.00,,,0.00,meteohub,2013-04-26 01:07:00,
2013-04-25 21:12:00,47.8,43.9,30.22,NW,306,0.0,0.0,53,0.00,,,0.00,meteohub,2013-04-26 01:12:00,
2013-04-25 21:17:00,47.3,43.9,30.22,NW,306,0.0,0.0,54,0.00,,,0.00,meteohub,2013-04-26 01:17:00,
2013-04-25 21:22:00,46.9,43.9,30.23,NW,306,0.0,0.0,56,0.00,,,0.00,meteohub,2013-04-26 01:22:00,
2013-04-25 21:27:00,46.8,43.7,30.23,NW,306,0.0,0.0,55,0.00,,,0.00,meteohub,2013-04-26 01:27:00,
2013-04-25 21:32:00,46.6,43.7,30.23,NW,306,0.0,0.0,56,0.00,,,0.00,meteohub,2013-04-26 01:32:00,
2013-04-25 21:37:00,46.2,43.7,30.23,NW,306,0.0,0.0,55,0.00,,,0.00,meteohub,2013-04-26 01:37:00,
2013-04-25 21:42:00,46.0,43.7,30.24,NW,306,0.0,0.0,55,0.00,,,0.00,meteohub,2013-04-26 01:42:00,
2013-04-25 21:47:00,45.9,43.5,30.24,NW,306,0.0,0.0,55,0.00,,,0.00,meteohub,2013-04-26 01:47:00,
2013-04-25 21:52:00,45.7,43.5,30.24,NW,306,0.0,0.0,57,0.00,,,0.00,meteohub,2013-04-26 01:52:00,
2013-04-25 21:57:00,45.3,43.5,30.25,NW,306,0.0,0.0,57,0.00,,,0.00,meteohub,2013-04-26 01:57:00,
2013-04-25 22:02:00,45.1,43.5,30.25,NW,306,0.0,0.0,59,0.00,,,0.00,meteohub,2013-04-26 02:02:00,
2013-04-25 22:07:00,45.0,43.3,30.25,NW,306,0.0,0.0,59,0.00,,,0.00,meteohub,2013-04-26 02:07:00,
2013-04-25 22:12:00,44.4,43.3,30.26,NW,306,0.0,0.0,60,0.00,,,0.00,meteohub,2013-04-26 02:12:00,
2013-04-25 22:17:00,44.1,43.3,30.26,NW,306,0.0,1.0,59,0.00,,,0.00,meteohub,2013-04-26 02:17:00,
2013-04-25 22:22:00,43.9,43.3,30.26,NW,306,0.0,2.0,60,0.00,,,0.00,meteohub,2013-04-26 02:22:00,
2013-04-25 22:27:00,43.5,43.3,30.26,NW,306,0.0,2.0,61,0.00,,,0.00,meteohub,2013-04-26 02:27:00,
2013-04-25 22:32:00,43.5,43.3,30.26,NW,306,0.0,2.0,61,0.00,,,0.00,meteohub,2013-04-26 02:32:00,
2013-04-25 22:37:00,43.3,43.3,30.26,NW,306,0.0,0.0,61,0.00,,,0.00,meteohub,2013-04-26 02:37:00,
2013-04-25 22:42:00,43.3,43.3,30.26,NW,306,0.0,0.0,62,0.00,,,0.00,meteohub,2013-04-26 02:42:00,
2013-04-25 22:47:00,43.2,43.2,30.26,NW,306,0.0,0.0,62,0.00,,,0.00,meteohub,2013-04-26 02:47:00,
2013-04-25 22:52:00,43.2,43.2,30.26,NW,306,0.0,0.0,63,0.00,,,0.00,meteohub,2013-04-26 02:52:00,
2013-04-25 22:57:00,43.0,43.2,30.26,NW,306,0.0,0.0,62,0.00,,,0.00,meteohub,2013-04-26 02:57:00,
2013-04-25 23:02:00,42.6,43.2,30.27,NW,306,0.0,0.0,63,0.00,,,0.00,meteohub,2013-04-26 03:02:00,
2013-04-25 23:07:00,42.4,43.0,30.27,NW,306,0.0,0.0,64,0.00,,,0.00,meteohub,2013-04-26 03:07:00,
2013-04-25 23:12:00,42.4,43.0,30.27,NW,306,0.0,0.0,65,0.00,,,0.00,meteohub,2013-04-26 03:12:00,
2013-04-25 23:17:00,42.3,43.0,30.27,NW,306,0.0,0.0,65,0.00,,,0.00,meteohub,2013-04-26 03:17:00,
2013-04-25 23:22:00,41.9,43.0,30.27,NW,306,0.0,0.0,66,0.00,,,0.00,meteohub,2013-04-26 03:22:00,
2013-04-25 23:27:00,41.7,42.8,30.27,NW,306,0.0,0.0,66,0.00,,,0.00,meteohub,2013-04-26 03:27:00,
2013-04-25 23:32:00,41.4,42.8,30.27,NW,306,0.0,0.0,66,0.00,,,0.00,meteohub,2013-04-26 03:32:00,
2013-04-25 23:37:00,41.2,42.8,30.28,NW,306,0.0,0.0,66,0.00,,,0.00,meteohub,2013-04-26 03:37:00,
2013-04-25 23:42:00,41.0,42.6,30.28,NW,306,0.0,0.0,66,0.00,,,0.00,meteohub,2013-04-26 03:42:00,
2013-04-25 23:47:00,40.8,42.6,30.28,NW,306,0.0,0.0,65,0.00,,,0.00,meteohub,2013-04-26 03:47:00,
2013-04-25 23:52:00,40.6,42.6,30.28,NW,306,0.0,0.0,67,0.00,,,0.00,meteohub,2013-04-26 03:52:00,
2013-04-25 23:57:00,40.6,42.4,30.28,NW,306,0.0,0.0,68,0.00,,,0.00,meteohub,2013-04-26 03:57:00,